Flag for Canada Weather past 2 weeks in Yellowknife, Northwest Territories, Canada

Now
34 °F

Passing clouds.


Feels Like: 25 °F
Forecast: 31 / 37 °F
Wind: 12 mph from Northwest

Location: Yellowknife

Current Time: Oct 1, 2014 at 7:21:05 AM

Latest Report: Oct 1, 2014 at 7:00 AM


Visibility: 15 mi

Pressure: 29.81 "Hg

Humidity: 75%

Dew point: 27 °F

Location of YellowknifeLocation

Historic Weather in Yellowknife — Graph

°F

Yellowknife temperature yesterday

Maximum temperature yesterday: 46 °F (at 1:00 AM)
Minimum temperature yesterday: 36 °F (at 11:00 PM)
Average temperature yesterday: 42 °F

Past Weeks' High & Low Weather Summary

 TemperatureHumidityPressure
High68 °F (Sep 22, 5:00 PM)100% (Sep 20, 3:00 AM)30.32 "Hg (Sep 20, 3:00 AM)
Low30 °F (Sep 16, 6:00 AM)34% (Sep 16, 6:00 PM)29.35 "Hg (Sep 22, 3:00 PM)
Average45 °F77%29.80 "Hg
* Reported Sep 16 6:00 AM — Oct 1 6:00 AM, Yellowknife, Weather by CustomWeather, © 2014

Note: Actual official high and low records may vary slightly from our data, if they occured in-between our weather recording intervals... More about our weather records

Advertising

Yellowknife weather history for previous 24 hours

 ConditionsComfort  
Time TempWeatherWind HumidityBarometerVisibility
6:00 AM
Oct 1
30 °FPassing clouds.8 mph93%29.80 "Hg15 mi
5:00 AM30 °FPassing clouds.7 mph93%29.80 "Hg15 mi
4:00 AM30 °FPassing clouds.8 mph93%29.79 "Hg15 mi
3:00 AM30 °FPassing clouds.7 mph86%29.79 "Hg15 mi
2:00 AM32 °FPassing clouds.13 mph80%29.78 "Hg15 mi
1:00 AM34 °FPassing clouds.9 mph81%29.77 "Hg15 mi
12:00 AM36 °FPassing clouds.12 mph75%29.76 "Hg15 mi
11:00 PM
Sep 30
36 °FPassing clouds.13 mph75%29.76 "Hg15 mi
10:00 PM37 °FPassing clouds.9 mph75%29.76 "Hg15 mi
9:00 PM39 °FOvercast.10 mph65%29.74 "Hg15 mi
8:00 PM41 °FPartly sunny.12 mph61%29.73 "Hg15 mi
7:00 PM41 °FOvercast.14 mph61%29.72 "Hg15 mi
6:00 PM41 °FMostly cloudy.18 mph66%29.72 "Hg15 mi
5:00 PM41 °FMostly cloudy.14 mph66%29.70 "Hg15 mi
4:00 PM43 °FMostly cloudy.16 mph61%29.69 "Hg15 mi
3:00 PM45 °FBroken clouds.14 mph61%29.67 "Hg15 mi
2:00 PM43 °FPartly sunny.12 mph66%29.66 "Hg15 mi
1:00 PM43 °FBroken clouds.15 mph66%29.64 "Hg15 mi
12:00 PM43 °FScattered clouds.15 mph71%29.63 "Hg15 mi
11:00 AM39 °FBroken clouds.16 mph75%29.62 "Hg15 mi
9:00 AM39 °FPartly sunny.16 mph81%29.60 "Hg15 mi
8:00 AM39 °FMostly cloudy.10 mph87%29.57 "Hg15 mi
7:00 AM41 °FPassing clouds.13 mph81%29.56 "Hg15 mi
Weather by CustomWeather, © 2014

See weather overviewHow to use our weather pages